Location: LDNL
(36.4545°S, 141.6685°E)
Time: 21:39:45
(UTC+11:00)

Courier 1B Rocket - Pass Details

Date: 07 February 2023
Orbit: 920 x 1202 km, 28.2° (Epoch: 26 March)

Event Time Altitude Azimuth Distance (km) Brightness Sun altitude
Rises 02:11:48 0° 343° (NNW) 3,837 - -37.7°
Reaches altitude 10° 02:16:48 10° 13° (NNE) 2,963 - -37.5°
Maximum altitude 02:19:09 12° 32° (NNE) 2,872 - -37.4°
Drops below altitude 10° 02:21:31 10° 51° (NE) 3,031 - -37.4°
Exits shadow 02:25:58 - 76° (ENE) 3,854 8.1 -37.2°
Sets 02:26:47 0° 80° (E) 4,055 8.3 -37.2°
